When you browse on this site, cookies collect data to enhance your experience and personalize the content and advertising you see.
Visit our Privacy Policy to learn more. By continuing to use the site, you agree to this use of cookies and data.
  • In Italy
  • List of Countries
  • For 7 days
  • Water Temperature
  • Satellite Maps
  • Weather Map
  • Weather Widgets
  • user-avatar
    Login

    Hourly Weather Shmyri

    Today, 22 February, Friday

    Time Temperature Precipitation Wind Pressure Humidity
    00:00 -13°C° 0 mm 5 mps 746 mmHg 76%
    01:00 -13°C° 0 mm 5 mps 747 mmHg 76%
    02:00 -14°C° 0 mm 5 mps 747 mmHg 76%
    03:00 -15°C° 0 mm 6 mps 748 mmHg 76%
    04:00 -15°C° 0 mm 6 mps 748 mmHg 76%
    05:00 -15°C° 0 mm 6 mps 748 mmHg 76%
    06:00 -15°C° 0 mm 6 mps 749 mmHg 76%
    07:00 -15°C° 0 mm 6 mps 749 mmHg 76%
    08:00 -15°C° 0 mm 7 mps 750 mmHg 76%
    09:00 -14°C° 0 mm 7 mps 750 mmHg 74%
    10:00 -14°C° 0 mm 7 mps 751 mmHg 73%
    11:00 -13°C° 0 mm 8 mps 751 mmHg 71%
    12:00 -13°C° 0 mm 8 mps 752 mmHg 70%
    13:00 -12°C° 0 mm 8 mps 752 mmHg 70%
    14:00 -12°C° 0 mm 7 mps 753 mmHg 69%
    15:00 -12°C° 0 mm 7 mps 754 mmHg 70%
    16:00 -11°C° 0 mm 6 mps 754 mmHg 72%
    17:00 -11°C° 0 mm 6 mps 755 mmHg 73%
    18:00 -12°C° 0 mm 6 mps 756 mmHg 75%
    19:00 -12°C° 0 mm 5 mps 756 mmHg 76%
    20:00 -12°C° 0 mm 5 mps 757 mmHg 78%
    21:00 -13°C° 0 mm 5 mps 757 mmHg 80%
    22:00 -13°C° 0 mm 5 mps 758 mmHg 82%
    23:00 -12°C° 0 mm 4 mps 758 mmHg 84%

    Tomorrow, 23 February, Saturday

    Time Temperature Precipitation Wind Pressure Humidity
    00:00 -14°C° 0 mm 4 mps 759 mmHg 85%
    01:00 -14°C° 0 mm 4 mps 759 mmHg 87%
    02:00 -14°C° 0 mm 4 mps 760 mmHg 88%
    03:00 -13°C° 0 mm 3 mps 760 mmHg 89%
    04:00 -14°C° 0 mm 3 mps 761 mmHg 91%
    05:00 -14°C° 0 mm 3 mps 761 mmHg 92%
    06:00 -14°C° 0 mm 3 mps 761 mmHg 92%
    07:00 -13°C° 0 mm 2 mps 761 mmHg 91%
    08:00 -13°C° 0 mm 2 mps 761 mmHg 90%
    09:00 -10°C° 0 mm 2 mps 761 mmHg 85%
    10:00 -9°C° 0 mm 2 mps 761 mmHg 79%
    11:00 -7°C° 0 mm 2 mps 761 mmHg 74%
    12:00 -6°C° 0 mm 2 mps 761 mmHg 72%
    13:00 -7°C° 0 mm 3 mps 760 mmHg 70%
    14:00 -7°C° 0 mm 4 mps 760 mmHg 68%
    15:00 -7°C° 0 mm 4 mps 759 mmHg 69%
    16:00 -7°C° 0 mm 4 mps 759 mmHg 71%
    17:00 -8°C° 0 mm 4 mps 758 mmHg 72%
    18:00 -8°C° 0.2 mm 5 mps 758 mmHg 76%
    19:00 -8°C° 0.2 mm 5 mps 758 mmHg 80%
    20:00 -8°C° 0.2 mm 5 mps 757 mmHg 84%
    21:00 -8°C° 0.1 mm 5 mps 757 mmHg 86%
    22:00 -7°C° 0.1 mm 5 mps 756 mmHg 88%
    23:00 -7°C° 0.1 mm 5 mps 756 mmHg 90%

    Day after tomorrow, 24 February, Sunday

    Time Temperature Precipitation Wind Pressure Humidity
    00:00 -7°C° 0 mm 5 mps 756 mmHg 90%
    01:00 -6°C° 0 mm 5 mps 755 mmHg 91%
    02:00 -5°C° 0 mm 4 mps 755 mmHg 91%
    03:00 -5°C° 0 mm 4 mps 755 mmHg 92%
    04:00 -4°C° 0 mm 4 mps 754 mmHg 92%
    05:00 -4°C° 0 mm 4 mps 754 mmHg 93%
    06:00 -4°C° 0 mm 4 mps 754 mmHg 93%
    07:00 -4°C° 0 mm 4 mps 754 mmHg 93%
    08:00 -2°C° 0 mm 3 mps 754 mmHg 94%
    09:00 -3°C° 0 mm 4 mps 754 mmHg 94%
    10:00 -2°C° 0 mm 4 mps 754 mmHg 94%
    11:00 -2°C° 0 mm 4 mps 754 mmHg 94%
    12:00 0°C° 0 mm 3 mps 754 mmHg 95%
    13:00 0°C° 0 mm 3 mps 754 mmHg 96%
    14:00 0°C° 0 mm 3 mps 754 mmHg 97%
    15:00 0°C° 0 mm 3 mps 754 mmHg 96%
    16:00 0°C° 0 mm 3 mps 754 mmHg 96%
    17:00 0°C° 0 mm 3 mps 754 mmHg 95%
    18:00 -1°C° 0 mm 3 mps 754 mmHg 96%
    19:00 -1°C° 0 mm 3 mps 754 mmHg 96%
    20:00 -1°C° 0 mm 3 mps 754 mmHg 96%
    21:00 -1°C° 0 mm 3 mps 754 mmHg 96%
    22:00 -1°C° 0 mm 4 mps 753 mmHg 95%
    23:00 -1°C° 0 mm 4 mps 753 mmHg 95%

    25 February, Monday

    Time Temperature Precipitation Wind Pressure Humidity
    00:00 -1°C° 0 mm 4 mps 753 mmHg 95%
    01:00 -1°C° 0 mm 4 mps 752 mmHg 94%
    02:00 -1°C° 0 mm 4 mps 752 mmHg 93%
    03:00 -1°C° 0 mm 4 mps 752 mmHg 94%
    04:00 -1°C° 0 mm 4 mps 752 mmHg 94%
    05:00 -1°C° 0 mm 4 mps 751 mmHg 94%
    06:00 -1°C° 0 mm 4 mps 751 mmHg 94%
    07:00 -1°C° 0 mm 4 mps 751 mmHg 94%
    08:00 -1°C° 0 mm 4 mps 751 mmHg 94%
    09:00 -1°C° 0 mm 4 mps 751 mmHg 92%
    10:00 -1°C° 0 mm 4 mps 751 mmHg 91%
    11:00 -1°C° 0 mm 4 mps 751 mmHg 90%
    12:00 0°C° 0 mm 5 mps 751 mmHg 89%
    13:00 0°C° 0 mm 5 mps 751 mmHg 87%
    14:00 0°C° 0 mm 5 mps 751 mmHg 85%
    15:00 0°C° 0 mm 5 mps 751 mmHg 83%
    16:00 0°C° 0 mm 5 mps 750 mmHg 82%
    17:00 -1°C° 0 mm 4 mps 750 mmHg 80%
    18:00 -1°C° 0 mm 5 mps 750 mmHg 82%
    19:00 -1°C° 0 mm 5 mps 749 mmHg 83%
    20:00 -1°C° 0 mm 5 mps 749 mmHg 85%
    21:00 -1°C° 0 mm 5 mps 748 mmHg 86%
    22:00 -1°C° 0 mm 5 mps 748 mmHg 87%
    23:00 0°C° 0 mm 5 mps 747 mmHg 89%

    26 February, Tuesday

    Time Temperature Precipitation Wind Pressure Humidity
    00:00 0°C° 0.1 mm 5 mps 747 mmHg 89%
    01:00 0°C° 0.1 mm 5 mps 747 mmHg 89%
    02:00 -1°C° 0.1 mm 5 mps 746 mmHg 90%
    03:00 -1°C° 0 mm 5 mps 746 mmHg 90%
    04:00 -1°C° 0 mm 4 mps 746 mmHg 90%
    05:00 -1°C° 0 mm 4 mps 746 mmHg 90%
    06:00 -2°C° 0 mm 4 mps 745 mmHg 90%
    07:00 -2°C° 0 mm 4 mps 745 mmHg 91%
    08:00 -3°C° 0 mm 4 mps 745 mmHg 92%
    09:00 -2°C° 0 mm 4 mps 745 mmHg 89%
    10:00 -2°C° 0 mm 4 mps 744 mmHg 86%
    11:00 -1°C° 0 mm 4 mps 744 mmHg 84%
    12:00 -1°C° 0.1 mm 4 mps 743 mmHg 85%
    13:00 -1°C° 0.1 mm 4 mps 742 mmHg 85%
    14:00 -1°C° 0.1 mm 4 mps 741 mmHg 86%
    15:00 -1°C° 0.8 mm 4 mps 741 mmHg 88%
    16:00 -1°C° 0.8 mm 4 mps 740 mmHg 91%
    17:00 -1°C° 0.8 mm 4 mps 739 mmHg 93%
    18:00 -1°C° 0.3 mm 5 mps 739 mmHg 91%
    19:00 -1°C° 0.3 mm 6 mps 739 mmHg 88%
    20:00 -1°C° 0.3 mm 7 mps 739 mmHg 86%
    21:00 -2°C° 0.2 mm 7 mps 740 mmHg 86%
    22:00 -2°C° 0.2 mm 6 mps 740 mmHg 87%
    23:00 -1°C° 0.2 mm 5 mps 741 mmHg 87%

    27 February, Wednesday

    Time Temperature Precipitation Wind Pressure Humidity
    00:00 -1°C° 0.1 mm 5 mps 742 mmHg 87%
    01:00 -2°C° 0.1 mm 5 mps 742 mmHg 86%
    02:00 -2°C° 0.1 mm 5 mps 743 mmHg 86%
    03:00 -2°C° 0 mm 5 mps 743 mmHg 86%
    04:00 -2°C° 0 mm 5 mps 744 mmHg 86%
    05:00 -4°C° 0 mm 5 mps 744 mmHg 86%
    06:00 -2°C° 0 mm 4 mps 745 mmHg 86%
    07:00 -2°C° 0 mm 4 mps 745 mmHg 86%
    08:00 -2°C° 0 mm 4 mps 745 mmHg 87%
    09:00 -2°C° 0.1 mm 4 mps 746 mmHg 86%
    10:00 -2°C° 0.1 mm 4 mps 746 mmHg 85%
    11:00 -2°C° 0.1 mm 4 mps 746 mmHg 84%
    12:00 -1°C° 0 mm 4 mps 746 mmHg 84%
    13:00 -1°C° 0 mm 4 mps 746 mmHg 84%
    14:00 -1°C° 0 mm 4 mps 746 mmHg 85%
    15:00 0°C° 0 mm 3 mps 745 mmHg 86%
    16:00 -1°C° 0 mm 3 mps 745 mmHg 87%
    17:00 -1°C° 0 mm 2 mps 745 mmHg 89%
    18:00 -2°C° 0 mm 2 mps 744 mmHg 90%
    19:00 -2°C° 0 mm 3 mps 744 mmHg 90%
    20:00 -4°C° 0 mm 3 mps 743 mmHg 91%
    21:00 -2°C° 0.1 mm 3 mps 742 mmHg 91%
    22:00 -3°C° 0.1 mm 4 mps 741 mmHg 90%
    23:00 -2°C° 0.1 mm 4 mps 740 mmHg 90%
    Show more